Trenton, NJ

7:30 PM EST on December 09, 2016 (GMT -0500)
Trenton Mercer

Weather History for KTTN - April, 2014

Change the Weather History Date:

Wednesday, April 23, 2014

  Actual Average Record
Temperature  
Mean Temperature 52 °F 54 °F  
Max Temperature 60 °F 64 °F 89 °F (1960)
Min Temperature 43 °F 43 °F 30 °F (1988)
Degree Days  
Heating Degree Days 13 12  
Month to date heating degree days 316 347  
Since 1 July heating degree days 5275 4893  
Cooling Degree Days 0 0  
Month to date cooling degree days 6 0  
Year to date cooling degree days 6 0  
Growing Degree Days 2 (Base 50)    
Moisture  
Dew Point 33 °F    
Average Humidity 55    
Maximum Humidity 72    
Minimum Humidity 37    
Precipitation  
Precipitation 0.00 in 0.10 in 1.22 in (1928)
Month to date precipitation 1.40 2.87  
Year to date precipitation 12.39 12.48  
Sea Level Pressure  
Sea Level Pressure 29.66 in    
Wind  
Wind Speed 17 mph (NW)    
Max Wind Speed 29 mph    
Max Gust Speed 40 mph    
Visibility 10 miles    
Events      
T = Trace of Precipitation, MM = Missing Value Source: NWS Daily Summary

Daily Weather History Graph

Daily Weather History Graph

Search for Another Location

Airport or City:

Trip Planner

Search our weather history database for the weather conditions in past years. The results will help you decide how hot, cold, wet, or windy it might be!

Date:

Astronomy

Apr. 23, 2014 Rise Set
Actual Time 6:09 AM EDT 7:46 PM EDT
Civil Twilight 5:40 AM EDT 8:15 PM EDT
Nautical Twilight 5:06 AM EDT 8:50 PM EDT
Astronomical Twilight 4:29 AM EDT 9:27 PM EDT
Moon 2:40 AM EDT (4/23) 1:51 PM EDT (4/23)
Length of Visible Light 14h 34m
Length of Day
13h 36m
Waning Crescent, 35% of the Moon is Illuminated
Apr 23
Waning Crescent
Apr 29
New
May 6
First Quarter
May 14
Full
May 21
Last Quarter

Hourly Weather History & Observations

Time (EDT) Temp. Windchill Dew Point Humidity Pressure Visibility Wind Dir Wind Speed Gust Speed Precip Events Conditions
12:53 AM 55.9 °F - 46.9 °F 72% 29.54 in 10.0 mi West 10.4 mph 18.4 mph N/A   Scattered Clouds
1:53 AM 55.9 °F - 45.0 °F 67% 29.53 in 10.0 mi WNW 10.4 mph 20.7 mph N/A   Mostly Cloudy
2:53 AM 54.0 °F - 39.0 °F 57% 29.54 in 10.0 mi WNW 13.8 mph 21.9 mph N/A   Scattered Clouds
3:53 AM 50.0 °F - 32.0 °F 50% 29.56 in 10.0 mi WNW 12.7 mph 31.1 mph N/A   Mostly Cloudy
4:53 AM 48.9 °F - 30.9 °F 50% 29.57 in 10.0 mi NW 20.7 mph 35.7 mph N/A   Overcast
5:53 AM 48.0 °F - 30.9 °F 52% 29.59 in 10.0 mi WNW 10.4 mph 21.9 mph N/A   Partly Cloudy
6:53 AM 48.0 °F - 32.0 °F 54% 29.61 in 10.0 mi WNW 13.8 mph 24.2 mph N/A   Clear
7:53 AM 48.9 °F - 33.1 °F 54% 29.62 in 10.0 mi WNW 15.0 mph 29.9 mph N/A   Mostly Cloudy
8:53 AM 50.0 °F - 34.0 °F 54% 29.62 in 10.0 mi WNW 15.0 mph 28.8 mph N/A   Overcast
9:53 AM 50.0 °F - 34.0 °F 54% 29.65 in 10.0 mi NW 19.6 mph 27.6 mph N/A   Overcast
10:53 AM 52.0 °F - 34.0 °F 50% 29.64 in 10.0 mi NW 21.9 mph 32.2 mph N/A   Mostly Cloudy
11:53 AM 54.0 °F - 34.0 °F 47% 29.64 in 10.0 mi NW 15.0 mph 28.8 mph N/A   Mostly Cloudy
1:53 PM 57.9 °F - 35.1 °F 42% 29.64 in 10.0 mi NW 17.3 mph 34.5 mph N/A   Mostly Cloudy
2:53 PM 57.9 °F - 34.0 °F 41% 29.64 in 10.0 mi NNW 23.0 mph 33.4 mph N/A   Partly Cloudy
3:53 PM 57.9 °F - 33.1 °F 39% 29.66 in 10.0 mi NNW 20.7 mph 35.7 mph N/A   Partly Cloudy
4:53 PM 59.0 °F - 33.1 °F 38% 29.67 in 10.0 mi NNW 18.4 mph 31.1 mph N/A   Scattered Clouds
5:53 PM 55.9 °F - 33.1 °F 42% 29.70 in 10.0 mi NNW 19.6 mph 34.5 mph N/A   Partly Cloudy
6:53 PM 53.1 °F - 33.1 °F 47% 29.72 in 10.0 mi NNW 13.8 mph 27.6 mph N/A   Mostly Cloudy
7:53 PM 52.0 °F - 30.9 °F 45% 29.76 in 10.0 mi NNW 20.7 mph 36.8 mph N/A   Overcast
8:53 PM 48.0 °F - 28.0 °F 46% 29.80 in 10.0 mi NNW 19.6 mph 32.2 mph N/A   Clear
9:53 PM 45.0 °F 35.4 °F 26.1 °F 48% 29.84 in 10.0 mi NNW 28.8 mph 39.1 mph N/A   Clear
10:53 PM 45.0 °F 38.9 °F 25.0 °F 46% 29.86 in 10.0 mi NW 12.7 mph 24.2 mph N/A   Clear
11:53 PM 43.0 °F 38.8 °F 25.0 °F 49% 29.87 in 10.0 mi WNW 6.9 mph 17.3 mph N/A   Clear